Home   Weather   Scottsdale   Past weeks
Flag for USA

Past Weather in Scottsdale, Arizona, USA — Yesterday and Last 2 Weeks

Now
77 °F

Sunny.


Feels Like: 77 °F
Forecast: 86 / 61 °F
Wind: No wind

Location: Scottsdale Airport

Current Time: Oct 23, 2019 at 11:59:53 am

Latest Report: Oct 23, 2019 at 10:53 am


Visibility: 10 mi

Pressure: 29.89 "Hg

Humidity: 19%

Dew Point: 32 °F

Location of ScottsdaleLocation

Past Weather in Scottsdale — Graph

°F

Scottsdale Temperature Yesterday

Maximum temperature yesterday: 89 °F (at 3:53 pm)
Minimum temperature yesterday: 59 °F (at 4:53 am)
Average temperature yesterday: 74 °F

High & Low Weather Summary for the Past Weeks

 TemperatureHumidityPressure
High94 °F (Oct 8, 2:53 pm)56% (Oct 15, 5:53 am)30.09 "Hg (Oct 15, 5:53 am)
Low55 °F (Oct 21, 6:53 am)4% (Oct 11, 9:53 am)29.57 "Hg (Oct 17, 5:53 pm)
Average75 °F23%29.82 "Hg
* Reported Oct 8 9:53 am — Oct 23 9:53 am, Scottsdale. Weather by CustomWeather, © 2019

Note: Actual official high and low records may vary slightly from our data, if they occured in-between our weather recording intervals... More about our weather records

Advertising

Scottsdale Weather History for the Previous 24 Hours

Scroll right to see more
 ConditionsComfort  
Time TempWeatherWind HumidityBarometerVisibility
9:53 am
Wed, Oct 23
73 °FSunny.5 mph24%29.91 "Hg10 mi
8:53 am69 °FSunny.3 mph26%29.92 "Hg10 mi
7:53 am65 °FSunny.No wind33%29.90 "Hg10 mi
6:53 am59 °FSunny.No wind46%29.88 "Hg10 mi
5:53 am60 °FClear.No wind39%29.87 "Hg10 mi
4:53 am61 °FClear.No wind39%29.88 "Hg10 mi
3:53 am59 °FClear.3 mph42%29.87 "Hg10 mi
2:53 am61 °FClear.3 mph39%29.87 "Hg10 mi
1:53 am63 °FClear.No wind37%29.88 "Hg10 mi
12:53 am66 °FClear.No wind28%29.89 "Hg10 mi
11:53 pm
Tue, Oct 22
67 °FClear.No wind32%29.89 "Hg10 mi
10:53 pm68 °FClear.No wind28%29.90 "Hg10 mi
9:53 pm74 °FClear.No wind19%29.91 "Hg10 mi
8:53 pm74 °FClear.No wind20%29.92 "Hg10 mi
7:53 pm79 °FClear.No wind15%29.92 "Hg10 mi
6:53 pm80 °FClear.No wind14%29.93 "Hg10 mi
5:53 pm84 °FClear.5 mph11%29.90 "Hg10 mi
4:53 pm88 °FSunny.6 mph10%29.91 "Hg10 mi
3:53 pm89 °FSunny.8 mph9%29.93 "Hg10 mi
2:53 pm88 °FSunny.No wind9%29.94 "Hg10 mi
1:53 pm88 °FSunny.3 mph10%29.96 "Hg10 mi
12:53 pm86 °FSunny.3 mph10%30.00 "Hg10 mi
11:53 am84 °FSunny.5 mph11%30.04 "Hg10 mi
Weather by CustomWeather, © 2019

See weather overview